EW1836 Weather Reports


time (UTC)temp
C
wind
direction
speed
KPH
gust
KPH
rain 1hr
cm
rain 24hr
cm
rain mn
cm
humidity
%
barometer
mb
20211025034553 16 170 0.0 3.2 0.00 0.00 0.00 88 1018.8
20211025033104 15 144 0.0 6.4 0.00 0.00 0.00 89 1018.8
20211025031644 15 185 0.0 3.2 0.00 0.00 0.00 90 1019.0
20211025030259 15 167 0.0 0.0 0.00 0.00 0.00 91 1019.0
20211025024625 15 162 0.0 0.0 0.00 0.00 0.00 91 1019.1
20211025023107 15 169 0.0 3.2 0.00 0.00 0.00 90 1019.1
20211025021623 15 168 0.0 0.0 0.00 0.00 0.00 90 1019.0
20211025020124 15 178 0.0 0.0 0.00 0.00 0.00 90 1019.0
20211025014544 15 178 0.0 0.0 0.00 0.00 0.00 90 1018.9
20211025013152 15 173 0.0 0.0 0.00 0.00 0.00 91 1019.0
20211025011520 16 240 0.0 0.0 0.00 0.00 0.00 90 1018.8
20211025003008 16 240 0.0 0.0 0.00 0.00 0.00 89 1019.1
20211025001625 16 240 0.0 0.0 0.00 0.00 0.00 89 1019.2
20211025000008 16 240 0.0 0.0 0.00 0.00 0.00 87 1019.1
20211024234647 17 240 0.0 0.0 0.00 0.00 0.00 86 1019.1
20211024233013 17 240 0.0 0.0 0.00 0.00 0.00 85 1018.9
20211024231621 17 240 0.0 0.0 0.00 0.00 0.00 84 1018.8
20211024230009 18 240 0.0 0.0 0.00 0.00 0.00 84 1018.8
20211024224552 18 240 0.0 0.0 0.00 0.00 0.00 81 1018.6
20211024223011 19 240 0.0 0.0 0.00 0.00 0.00 81 1018.9
20211024221556 19 240 0.0 0.0 0.00 0.00 0.00 80 1018.7
20211024220126 20 240 0.0 0.0 0.00 0.00 0.00 81 1019.0
20211024214518 20 240 0.0 0.0 0.00 0.00 0.00 81 1019.0
20211024211640 20 240 0.0 0.0 0.00 0.00 0.00 77 1019.5
20211024210105 21 241 0.0 0.0 0.00 0.00 0.00 74 1019.3
20211024204540 21 241 0.0 0.0 0.00 0.00 0.00 70 1019.4
20211024203121 22 241 0.0 0.0 0.00 0.00 0.00 66 1019.3
20211024200122 23 242 0.0 0.0 0.00 0.00 0.00 63 1019.5
20211024194626 23 244 0.0 0.0 0.00 0.00 0.00 61 1019.4
20211024193006 23 163 0.0 0.0 0.00 0.00 0.00 59 1019.5
20211024191614 23 198 0.0 4.8 0.00 0.00 0.00 55 1019.6
20211024190036 23 202 0.0 3.2 0.00 0.00 0.00 56 1019.8
20211024181523 23 211 0.0 3.2 0.00 0.00 0.00 53 1019.8
20211024180037 23 208 0.0 4.8 0.00 0.00 0.00 56 1020.3
20211024173039 23 146 0.0 4.8 0.00 0.00 0.00 62 1020.5
20211024171608 22 153 0.0 1.6 0.00 0.00 0.00 60 1020.6
20211024170127 22 313 0.0 8.0 0.00 0.00 0.00 59 1020.9
20211024164522 22 170 0.0 4.8 0.00 0.00 0.00 68 1021.0
20211024163027 21 181 0.0 12.9 0.00 0.00 0.00 64 1021.2
20211024161623 20 150 0.0 6.4 0.00 0.00 0.00 67 1021.5
20211024154542 18 148 0.0 6.4 0.00 0.00 0.00 75 1021.4
20211024151623 15 198 0.0 0.0 0.00 0.00 0.00 97 1021.3
20211024150106 14 182 0.0 6.4 0.00 0.00 0.00 97 1021.3
20211024143058 12 153 0.0 9.7 0.00 0.00 0.00 97 1021.4
20211024141540 11 192 0.0 0.0 0.00 0.00 0.00 97 1021.5
20211024134506 8 193 0.0 0.0 0.00 0.00 0.00 97 1021.3
20211024131603 7 193 0.0 0.0 0.00 0.00 0.00 96 1021.1
20211024123049 6 193 0.0 0.0 0.00 0.00 0.00 94 1020.9
20211024121537 6 193 0.0 0.0 0.00 0.00 0.00 94 1020.9
20211024114540 6 193 0.0 0.0 0.00 0.00 0.00 94 1020.8
20211024111513 6 193 0.0 0.0 0.00 0.00 0.00 94 1020.5
20211024104623 6 190 0.0 0.0 0.00 0.00 0.00 94 1020.4
20211024103042 6 188 0.0 0.0 0.00 0.00 0.00 94 1020.7
20211024101638 6 188 0.0 0.0 0.00 0.00 0.00 94 1020.8
20211024100010 6 188 0.0 0.0 0.00 0.00 0.00 94 1020.7
20211024093032 6 188 0.0 0.0 0.00 0.00 0.00 93 1020.6
20211024091534 6 188 0.0 0.0 0.00 0.00 0.00 94 1020.4
20211024090017 6 188 0.0 0.0 0.00 0.00 0.00 93 1020.3
20211024084520 6 188 0.0 0.0 0.00 0.00 0.00 93 1020.3
20211024083014 7 188 0.0 0.0 0.00 0.00 0.00 93 1020.3
20211024081541 7 188 0.0 0.0 0.00 0.00 0.00 93 1020.3
20211024080018 7 188 0.0 0.0 0.00 0.00 0.00 93 1020.4
20211024074511 7 188 0.0 0.0 0.00 0.00 0.00 93 1020.6
20211024073010 7 188 0.0 0.0 0.00 0.00 0.00 93 1020.5
20211024071507 7 188 0.0 0.0 0.00 0.00 0.00 93 1020.5
20211024070015 7 188 0.0 0.0 0.00 0.00 0.00 93 1020.2
20211024064625 7 188 0.0 0.0 0.00 0.00 0.00 93 1019.9
20211024063215 7 188 0.0 0.0 0.00 0.00 0.00 92 1019.6
20211024061631 7 188 0.0 0.0 0.00 0.00 0.00 93 1019.7
20211024060147 7 188 0.0 0.0 0.00 0.00 0.00 92 1019.6
20211024054627 8 188 0.0 0.0 0.00 0.00 0.00 92 1019.6
20211024053244 8 188 0.0 0.0 0.00 0.00 0.00 92 1019.6
20211024051618 8 188 0.0 0.0 0.00 0.00 0.00 92 1019.6
20211024050109 8 188 0.0 0.0 0.00 0.00 0.00 92 1019.7
20211024044604 8 188 0.0 0.0 0.00 0.00 0.00 92 1019.7
20211024043121 8 188 0.0 0.0 0.00 0.00 0.00 92 1019.9
20211024041601 8 188 0.0 0.0 0.00 0.00 0.00 92 1019.9
20211024040042 9 188 0.0 0.0 0.00 0.00 0.00 91 1019.8